STARLINK-4774 (56138 NORAD) Tracking and Keplerian Element Data

This shows tracking and keplerian element data for the satellite.

Feedback or suggestion? Click here.




ElementValue
Catalog56138
NameSTARLINK-4774
Epoch Orbit656
Epoch Day127.25001157
Epoch Year2023
RAAN33.6829
Inclination43.0016
Eccentricity0.0001514
Argument of Perigee270.4857
Mean Anonmoly352.257
Mean Motion15.4887249
Decay Rate0.00071706
L11 56138U 23046AY 23127.25001157 .00071706 00000+0 12925-2 0 9995
L22 56138 43.0016 33.6829 0001514 270.4857 352.2570 15.48872490 6563



Live tracking and technical data element details for STARLINK-4774 (NORAD 56138). STARLINK-4774 can be tracked NOW for your location showing map with azimuth and elevation plus other details from your city location.







IsCatalogInMostPopularTable: catalog: 56138, numindb: 3
Update: records affected: 1



GetName: 56138 STARLINK-4774

Hit Count: updated at: Sat, 03 Jun 2023 18:54:09 GMT